BARLOW-WX Weather Reports


Display with metric or nautical units.
time (UTC)temp
F
wind
direction
speed
MPH
gust
MPH
rain 1hr
in
rain 24hr
in
rain mn
in
humidity
%
barometer
mb
20260509031618 48 180 5.0 0.0 0.00 0.00 0.00 46 980.1
20260509030152 49 180 6.0 0.0 0.00 0.00 0.00 46 980.1
20260509024617 49 168 5.0 0.0 0.00 0.00 0.00 30 980.2
20260509023136 50 178 5.0 0.0 0.00 0.00 0.00 38 980.4
20260509021618 50 192 5.0 0.0 0.00 0.00 0.00 38 980.3
20260509020148 51 211 3.0 0.0 0.00 0.00 0.00 38 980.3
20260509014616 51 223 4.0 0.0 0.00 0.00 0.00 41 980.0
20260509013132 52 235 4.0 0.0 0.00 0.00 0.00 41 980.0
20260509011617 53 248 4.0 0.0 0.00 0.00 0.00 41 980.1
20260509010145 54 264 4.0 0.0 0.00 0.00 0.00 41 980.1
20260509004615 55 273 4.0 0.0 0.00 0.00 0.00 35 979.8
20260509003134 55 265 5.0 0.0 0.00 0.00 0.00 34 981.0
20260509001616 56 270 4.0 0.0 0.00 0.00 0.00 34 981.0
20260509000200 57 270 4.0 0.0 0.00 0.00 0.00 34 981.0
20260508234618 58 268 6.0 0.0 0.00 0.00 0.00 27 980.3
20260508233138 59 267 7.0 0.0 0.00 0.00 0.00 25 980.9
20260508231620 60 267 8.0 0.0 0.00 0.00 0.00 25 980.9
20260508230143 60 273 8.0 0.0 0.00 0.00 0.00 25 980.9
20260508224619 60 276 9.0 0.0 0.00 0.00 0.00 25 980.8
20260508223138 61 274 10.0 0.0 0.00 0.00 0.00 22 981.8
20260508221620 60 276 10.0 0.0 0.00 0.00 0.00 22 981.8
20260508220145 61 276 10.0 0.0 0.00 0.00 0.00 22 981.8
20260508214619 61 274 11.0 0.0 0.00 0.00 0.00 23 982.3
20260508213137 61 269 11.0 0.0 0.00 0.00 0.00 23 981.7
20260508211620 62 256 11.0 0.0 0.00 0.00 0.00 23 981.8
20260508210149 62 255 11.0 0.0 0.00 0.00 0.00 23 981.8
20260508204620 62 251 11.0 0.0 0.00 0.00 0.00 28 982.1
20260508203138 62 249 11.0 0.0 0.00 0.00 0.00 27 981.7
20260508201620 63 246 10.0 0.0 0.00 0.00 0.00 27 981.7
20260508200146 63 237 10.0 0.0 0.00 0.00 0.00 27 981.7
20260508194620 63 229 8.0 0.0 0.00 0.00 0.00 26 981.9
20260508193135 62 236 9.0 0.0 0.00 0.00 0.00 26 981.9
20260508191619 63 263 10.0 0.0 0.00 0.00 0.00 26 982.0
20260508190143 63 257 8.0 0.0 0.00 0.00 0.00 26 982.0
20260508184620 62 250 8.0 0.0 0.00 0.00 0.00 27 982.5
20260508183139 62 236 10.0 0.0 0.00 0.00 0.00 31 982.1
20260508181619 61 238 10.0 0.0 0.00 0.00 0.00 31 982.1
20260508180151 61 240 9.0 0.0 0.00 0.00 0.00 31 982.1
20260508174620 61 239 9.0 0.0 0.00 0.00 0.00 33 983.1
20260508173138 60 242 9.0 0.0 0.00 0.00 0.00 33 983.1
20260508171620 60 238 9.0 0.0 0.00 0.00 0.00 33 983.1
20260508170145 60 243 10.0 0.0 0.00 0.00 0.00 33 983.1
20260508164619 59 243 9.0 0.0 0.00 0.00 0.00 34 983.3
20260508163138 59 238 8.0 0.0 0.00 0.00 0.00 34 983.6
20260508161620 58 238 7.0 0.0 0.00 0.00 0.00 34 983.5
20260508160150 57 234 7.0 0.0 0.00 0.00 0.00 34 983.5
20260508154620 56 228 6.0 0.0 0.00 0.00 0.00 45 984.5
20260508153140 55 207 6.0 0.0 0.00 0.00 0.00 52 983.5
20260508151620 54 202 6.0 0.0 0.00 0.00 0.00 52 983.5
20260508150150 53 205 5.0 0.0 0.00 0.00 0.00 52 983.5
20260508144620 52 201 5.0 0.0 0.00 0.00 0.00 67 983.7
20260508143138 52 201 5.0 0.0 0.00 0.00 0.00 63 983.8
20260508141620 51 192 5.0 0.0 0.00 0.00 0.00 63 983.8
20260508140158 50 188 4.0 0.0 0.00 0.00 0.00 65 983.6
20260508134620 49 186 4.0 0.0 0.00 0.00 0.00 73 983.5
20260508133134 48 189 5.0 0.0 0.00 0.00 0.00 73 983.5
20260508131620 46 191 5.0 0.0 0.00 0.00 0.00 73 983.5
20260508130154 45 191 5.0 0.0 0.00 0.00 0.00 73 983.5
20260508124620 44 192 5.0 0.0 0.00 0.00 0.00 85 982.8
20260508123139 43 195 5.0 0.0 0.00 0.00 0.00 85 983.4
20260508121620 41 193 4.0 0.0 0.00 0.00 0.00 85 983.4
20260508120212 40 189 2.0 0.0 0.00 0.00 0.00 85 983.4
20260508114619 38 193 2.0 0.0 0.00 0.00 0.00 84 982.9
20260508113141 37 184 3.0 0.0 0.00 0.00 0.00 77 983.5
20260508111619 37 167 2.0 0.0 0.00 0.00 0.00 77 983.6
20260508110145 37 156 3.0 0.0 0.00 0.00 0.00 77 983.6
20260508104621 37 141 3.0 0.0 0.00 0.00 0.00 77 982.5
20260508103139 37 132 2.0 0.0 0.00 0.00 0.00 76 983.6
20260508101623 37 131 2.0 0.0 0.00 0.00 0.00 76 983.7
20260508100146 38 114 2.0 0.0 0.00 0.00 0.00 76 983.7
20260508094621 38 110 2.0 0.0 0.00 0.00 0.00 76 982.9
20260508093135 38 107 2.0 0.0 0.00 0.00 0.00 80 983.6
20260508091622 38 153 1.0 0.0 0.00 0.00 0.00 80 983.6
20260508090150 38 146 1.0 0.0 0.00 0.00 0.00 80 983.6
20260508084621 38 158 1.0 0.0 0.00 0.00 0.00 83 983.1
20260508083139 39 189 1.0 0.0 0.00 0.00 0.00 85 982.9
20260508081621 39 198 4.0 0.0 0.00 0.00 0.00 85 982.9
20260508080153 39 183 4.0 0.0 0.00 0.00 0.00 85 982.9
20260508074622 39 186 4.0 0.0 0.00 0.00 0.00 88 983.9
20260508073140 39 196 4.0 0.0 0.00 0.00 0.00 88 983.9
20260508071620 40 204 3.0 0.0 0.00 0.00 0.00 88 983.9
20260508070152 40 204 3.0 0.0 0.00 0.00 0.00 88 983.9
20260508064621 40 202 4.0 0.0 0.00 0.00 0.00 84 983.4
20260508063136 41 194 4.0 0.0 0.00 0.00 0.00 85 983.8
20260508061620 41 207 3.0 0.0 0.00 0.00 0.00 85 983.8
20260508060213 41 214 3.0 0.0 0.00 0.00 0.00 85 983.8
20260508054619 41 215 3.0 0.0 0.00 0.00 0.00 81 984.6
20260508053140 42 201 4.0 0.0 0.00 0.00 0.00 85 984.3
20260508051619 42 193 4.0 0.0 0.00 0.00 0.00 85 984.3
20260508050154 42 196 4.0 0.0 0.00 0.00 0.00 85 984.3
20260508044619 42 200 4.0 0.0 0.00 0.00 0.00 82 984.6
20260508043135 43 227 4.0 0.0 0.00 0.00 0.00 81 984.0
20260508041620 43 225 4.0 0.0 0.00 0.00 0.00 81 984.0
20260508040204 43 213 5.0 0.0 0.00 0.00 0.00 81 984.0
20260508034618 43 201 5.0 0.0 0.00 0.00 0.00 77 983.8
20260508033134 44 203 4.0 0.0 0.00 0.00 0.00 81 984.4